Hatteras, NC

10:24 AM EDT on October 22, 2019 (GMT -0400)
Mitchell

Weather History for KHSE - August, 2019

Change the Weather History Date:

Sunday, August 4, 2019

  Actual Average Record
Temperature  
Mean Temperature 82 °F 79 °F  
Max Temperature 90 °F 85 °F 93 °F (1991)
Min Temperature 73 °F 73 °F 57 °F (1959)
Degree Days  
Heating Degree Days 0 0  
Month to date heating degree days 0 0  
Since 1 June heating degree days 0 3  
Since 1 July heating degree days 0 0  
Cooling Degree Days 16 14  
Month to date cooling degree days 63 56  
Year to date cooling degree days 1363 944  
Since 1 June cooling degree days 981 801  
Growing Degree Days 32 (Base 50)    
Moisture  
Dew Point 73 °F    
Average Humidity 78    
Maximum Humidity 94    
Minimum Humidity 59    
Precipitation  
Precipitation 0.00 in 0.21 in 2.35 in (1950)
Month to date precipitation 1.09 0.80  
Year to date precipitation 32.81 31.06  
Snow  
Snow 0.00 in - - ()
Month to date snowfall 0.0  
Since 1 July snowfall 0.0  
Snow Depth 0.00 in    
Sea Level Pressure  
Sea Level Pressure 29.95 in    
Wind  
Wind Speed 3 mph ()    
Max Wind Speed 9 mph    
Max Gust Speed 12 mph    
Visibility 10.0 miles    
Events      
T = Trace of Precipitation, MM = Missing Value Source: Averaged Metar Reports

Daily Weather History Graph

Daily Weather History Graph

Search for Another Location

Airport or City:

Astronomy

Aug. 04, 2019 Rise Set
Actual Time 6:13 AM EDT 8:03 PM EDT
Civil Twilight 5:45 AM EDT 8:30 PM EDT
Nautical Twilight 5:12 AM EDT 9:04 PM EDT
Astronomical Twilight 4:36 AM EDT 9:39 PM EDT
Moon 10:08 AM EDT (8/4) 10:50 PM EDT (8/4)
Length of Visible Light 14h 44m
Length of Day
13h 49m
Waxing Crescent, 18% of the Moon is Illuminated
Aug 4
Waxing Crescent
Aug 7
First Quarter
Aug 15
Full
Aug 23
Last Quarter
Aug 30
New

Hourly Weather History & Observations

Time (EDT) Temp. Heat Index Dew Point Humidity Pressure Visibility Wind Dir Wind Speed Gust Speed Precip Events Conditions
12:51 AM 75.0 °F - 73.0 °F 94% 29.95 in 10.0 mi Calm Calm - N/A   Clear
1:51 AM 73.9 °F - 72.0 °F 93% 29.94 in 10.0 mi Calm Calm - N/A   Clear
2:24 AM 73.9 °F - 72.0 °F 93% 29.94 in 10.0 mi Calm Calm - N/A   Mostly Cloudy
2:51 AM 75.0 °F - 73.0 °F 94% 29.94 in 10.0 mi NW 3.5 mph - N/A   Mostly Cloudy
3:07 AM 75.9 °F - 73.9 °F 94% 29.93 in 10.0 mi NNW 4.6 mph - N/A   Scattered Clouds
3:51 AM 77.0 °F - 73.0 °F 88% 29.93 in 10.0 mi Variable 3.5 mph - N/A   Partly Cloudy
4:38 AM 77.0 °F - 73.0 °F 88% 29.94 in 10.0 mi NNW 4.6 mph - N/A   Mostly Cloudy
4:51 AM 77.0 °F - 73.0 °F 88% 29.94 in 10.0 mi Variable 4.6 mph - N/A   Mostly Cloudy
5:10 AM 77.0 °F - 73.0 °F 88% 29.94 in 10.0 mi Variable 4.6 mph - N/A   Scattered Clouds
5:51 AM 77.0 °F - 73.0 °F 88% 29.95 in 10.0 mi Variable 4.6 mph - N/A   Partly Cloudy
6:27 AM 77.0 °F - 73.0 °F 88% 29.96 in 10.0 mi Variable 3.5 mph - N/A   Mostly Cloudy
6:37 AM 77.0 °F - 73.0 °F 88% 29.96 in 10.0 mi Variable 3.5 mph - N/A   Scattered Clouds
6:51 AM 77.0 °F - 73.0 °F 88% 29.96 in 10.0 mi Variable 4.6 mph - N/A   Partly Cloudy
7:51 AM 80.1 °F 84.2 °F 73.0 °F 79% 29.96 in 10.0 mi NNW 5.8 mph - N/A   Clear
8:51 AM 81.0 °F 86.2 °F 73.9 °F 79% 29.97 in 10.0 mi Variable 3.5 mph - N/A   Scattered Clouds
9:05 AM 82.0 °F 87.9 °F 73.9 °F 76% 29.96 in 10.0 mi Variable 4.6 mph - N/A   Mostly Cloudy
9:51 AM 81.0 °F 86.7 °F 75.0 °F 82% 29.97 in 10.0 mi Variable 4.6 mph - N/A   Overcast
10:51 AM 84.0 °F 92.6 °F 75.9 °F 76% 29.97 in 10.0 mi NNE 5.8 mph - N/A   Mostly Cloudy
11:05 AM 84.0 °F 91.9 °F 75.0 °F 74% 29.97 in 10.0 mi Variable 4.6 mph - N/A   Scattered Clouds
11:51 AM 84.9 °F 93.3 °F 75.0 °F 72% 29.98 in 10.0 mi Variable 5.8 mph - N/A   Partly Cloudy
12:51 PM 86.0 °F 93.0 °F 73.0 °F 65% 29.97 in 10.0 mi Variable 5.8 mph - N/A   Clear
1:51 PM 89.1 °F 98.0 °F 73.9 °F 61% 29.96 in 10.0 mi South 9.2 mph - N/A   Scattered Clouds
2:04 PM 88.0 °F 96.5 °F 73.9 °F 63% 29.97 in 10.0 mi SSE 6.9 mph - N/A   Mostly Cloudy
2:23 PM 88.0 °F 96.5 °F 73.9 °F 63% 29.96 in 10.0 mi South 8.1 mph - N/A   Scattered Clouds
2:51 PM 88.0 °F 95.6 °F 73.0 °F 61% 29.95 in 10.0 mi South 8.1 mph - N/A   Clear
3:51 PM 87.1 °F 93.6 °F 72.0 °F 61% 29.94 in 10.0 mi SSE 8.1 mph - N/A   Clear
4:51 PM 87.1 °F 92.8 °F 71.1 °F 59% 29.93 in 10.0 mi South 6.9 mph - N/A   Clear
5:51 PM 87.1 °F 92.8 °F 71.1 °F 59% 29.93 in 10.0 mi SSE 6.9 mph - N/A   Clear
6:51 PM 84.0 °F 89.6 °F 72.0 °F 67% 29.94 in 10.0 mi South 5.8 mph - N/A   Clear
7:51 PM 82.0 °F 86.7 °F 72.0 °F 71% 29.95 in 10.0 mi SSE 5.8 mph - N/A   Clear
8:51 PM 81.0 °F 85.8 °F 73.0 °F 77% 29.95 in 10.0 mi SSW 5.8 mph - N/A   Clear
9:51 PM 80.1 °F 84.2 °F 73.0 °F 79% 29.98 in 10.0 mi Calm Calm - N/A   Overcast
10:51 PM 80.1 °F 84.2 °F 73.0 °F 79% 29.96 in 10.0 mi SSW 4.6 mph - N/A   Overcast
11:51 PM 78.1 °F - 72.0 °F 81% 29.96 in 10.0 mi WSW 3.5 mph - N/A   Clear